Station NEAW1 - 9443090 - Neah Bay, WA Image indicating link to RSS feed of recent meteorological observations for station NEAW1


Conditions at NEAW1 as of
(4:18 am PDT)
1118 GMT on 05/20/2024:
     

Click on the graph icon in the table below to see a time series plot of the last five days of that observation.

5-day plot - Atmospheric Pressure Atmospheric Pressure (PRES):30.26 in
5-day plot - Water Temperature Water Temperature (WTMP): 51.4 °F
NOS Water Level Observation Network Water Level
Previous observations
TIME
(PDT)
5-day plot - Wind Direction
WDIR
 
5-day plot - Wind Speed
WSPD
kts
5-day plot - Wind Gust
GST
kts
5-day plot - Wave Height
WVHT
ft
5-day plot - Dominant Wave Period
DPD
sec
5-day plot - Average Wave Period
APD
sec
5-day plot - Mean Wave Direction
MWD
 
5-day plot - Atmospheric Pressure
PRES
in
5-day plot - Pressure Tendency
PTDY
in
5-day plot - Air Temperature
ATMP
°F
5-day plot - Water Temperature
WTMP
°F
5-day plot - Dew Point
DEWP
°F
5-day plot - Salinity
SAL
psu
5-day plot - Visibility
VIS
nmi
5-day plot - Tide (above MLLW)
TIDE
ft
2024-05-20 04:12 am-------30.27-- 51.1----
2024-05-20 04:06 am-------30.27-- 51.1----
2024-05-20 04:00 am-------30.27-0.01- 51.1----
2024-05-20 03:54 am-------30.27-- 51.3----
2024-05-20 03:48 am-------30.27-- 51.1----
2024-05-20 03:42 am-------30.27-- 50.9----
2024-05-20 03:36 am-------30.27-- 50.5----
2024-05-20 03:30 am-------30.27-- 50.5----
2024-05-20 03:24 am-------30.27-- 50.5----
2024-05-20 03:18 am-------30.27-- 50.5----
2024-05-20 03:12 am-------30.27-- 50.5----
2024-05-20 03:06 am-------30.27-- 50.5----
2024-05-20 03:00 am-------30.27-0.01- 50.5----
2024-05-20 02:54 am-------30.27-- 50.5----
2024-05-20 02:48 am-------30.27-- 50.5----
2024-05-20 02:42 am-------30.27-- 50.7----
2024-05-20 02:36 am-------30.27-- 50.9----
2024-05-20 02:30 am-------30.27-- 51.1----
2024-05-20 02:24 am-------30.27-- 51.3----
2024-05-20 02:18 am-------30.27-- 51.6----
2024-05-20 02:12 am-------30.27-- 52.0----
2024-05-20 02:06 am-------30.27-- 52.3----
2024-05-20 02:00 am-------30.27+0.00- 52.3----
2024-05-20 01:54 am-------30.27-- 52.3----
2024-05-20 01:48 am-------30.27-- 52.3----
2024-05-20 01:42 am-------30.27-- 52.3----
2024-05-20 01:36 am-------30.27-- 52.3----
2024-05-20 01:30 am-------30.27-- 52.3----
2024-05-20 01:24 am-------30.27-- 52.2----
2024-05-20 01:18 am-------30.27-- 52.2----
2024-05-20 01:12 am-------30.27-- 52.2----
2024-05-20 01:06 am-------30.27-- 52.3----
2024-05-20 01:00 am-------30.27+0.00- 52.3----
2024-05-20 12:54 am-------30.27-- 52.3----
2024-05-20 12:48 am-------30.27-- 52.3----
2024-05-20 12:42 am-------30.27-- 52.3----
2024-05-20 12:36 am-------30.27-- 52.2----
2024-05-20 12:30 am-------30.27-- 52.2----
2024-05-20 12:24 am-------30.27-- 52.2----
2024-05-20 12:18 am-------30.27-- 52.2----
2024-05-20 12:12 am-------30.27-- 52.2----
2024-05-20 12:06 am-------30.27-- 52.2----
2024-05-20 12:00 am-------30.27+0.01- 52.2----
2024-05-19 11:54 pm-------30.27-- 52.2----
2024-05-19 11:48 pm-------30.27-- 52.2----
2024-05-19 11:42 pm-------30.27-- 52.2----
2024-05-19 11:36 pm-------30.27-- 52.2----
2024-05-19 11:30 pm-------30.27-- 52.0----
2024-05-19 11:24 pm-------30.27-- 51.8----
2024-05-19 11:18 pm-------30.27-- 51.4----
2024-05-19 11:12 pm-------30.27-- 51.1----
2024-05-19 11:06 pm-------30.27-- 50.7----
2024-05-19 11:00 pm-------30.27+0.01- 50.4----
2024-05-19 10:54 pm-------30.27-- 50.4----
2024-05-19 10:48 pm-------30.27-- 50.4----
2024-05-19 10:42 pm-------30.27-- 50.4----
2024-05-19 10:36 pm-------30.27-- 50.4----
2024-05-19 10:30 pm-------30.27-- 50.5----
2024-05-19 10:24 pm-------30.27-- 50.5----
2024-05-19 10:18 pm-------30.27-- 50.7----
2024-05-19 10:12 pm-------30.27-- 50.7----
2024-05-19 10:06 pm-------30.27-- 51.1----
2024-05-19 10:00 pm-------30.27+0.01- 51.3----
2024-05-19 09:54 pm-------30.27-- 51.6----
2024-05-19 09:48 pm-------30.27-- 52.2----
2024-05-19 09:42 pm-------30.27-- 52.5----
2024-05-19 09:36 pm-------30.27-- 52.7----
2024-05-19 09:30 pm-------30.27-- 52.7----
2024-05-19 09:24 pm-------30.27-- 52.9----
2024-05-19 09:18 pm-------30.27-- 52.9----
2024-05-19 09:12 pm-------30.27-- 52.9----
2024-05-19 09:06 pm-------30.27-- 53.1----
2024-05-19 09:00 pm-------30.27+0.00- 53.1----
2024-05-19 08:54 pm-------30.27-- 53.1----
2024-05-19 08:48 pm-------30.27-- 53.1----
2024-05-19 08:42 pm-------30.27-- 53.1----
2024-05-19 08:36 pm-------30.27-- 53.1----
2024-05-19 08:30 pm-------30.27-- 53.1----
2024-05-19 08:24 pm-------30.27-- 53.2----
2024-05-19 08:18 pm-------30.26-- 53.2----
2024-05-19 08:12 pm-------30.26-- 53.2----
2024-05-19 08:06 pm-------30.26-- 53.1----
2024-05-19 08:00 pm-------30.26-0.01- 53.1----
2024-05-19 07:54 pm-------30.26-- 53.1----
2024-05-19 07:48 pm-------30.26-- 53.2----
2024-05-19 07:42 pm-------30.26-- 53.2----
2024-05-19 07:36 pm-------30.26-- 53.2----
2024-05-19 07:30 pm-------30.26-- 53.2----
2024-05-19 07:24 pm-------30.26-- 53.2----
2024-05-19 07:18 pm-------30.26-- 53.2----
2024-05-19 07:12 pm-------30.26-- 53.2----
2024-05-19 07:06 pm-------30.26-- 53.2----
2024-05-19 07:00 pm-------30.26-- 53.2----
2024-05-19 06:54 pm-------30.26-- 53.2----
2024-05-19 06:48 pm-------30.26-- 53.2----
2024-05-19 06:42 pm-------30.26-- 53.2----
2024-05-19 06:36 pm-------30.26-- 53.1----
2024-05-19 06:30 pm-------30.26-- 53.1----
2024-05-19 06:24 pm-------30.26-- 53.1----
2024-05-19 06:18 pm-------30.27-- 53.1----
2024-05-19 06:12 pm-------30.26-- 53.1----
2024-05-19 06:06 pm-------30.26-- 53.1----
2024-05-19 06:00 pm-------30.27+0.00- 53.1----
2024-05-19 05:54 pm-------30.27-- 53.1----
2024-05-19 05:48 pm-------30.26-- 53.1----
2024-05-19 05:42 pm-------30.27-- 53.1----
2024-05-19 05:36 pm-------30.27-- 53.1----
2024-05-19 05:30 pm-------30.27-- 53.1----
2024-05-19 05:24 pm-------30.27-- 52.9----
2024-05-19 05:18 pm---------- 52.9----
2024-05-19 05:12 pm---------- 52.9----
2024-05-19 05:06 pm---------- 52.9----
2024-05-19 05:00 pm-------30.27+0.00- 52.9----
2024-05-19 04:54 pm-------30.27-- 52.9----
2024-05-19 04:48 pm-------30.27-- 52.9----
2024-05-19 04:42 pm-------30.27-- 52.9----
2024-05-19 04:36 pm-------30.27-- 52.9----
2024-05-19 04:30 pm-------30.27-- 52.7----
2024-05-19 04:24 pm-------30.27-- 52.7----
2024-05-19 04:18 pm-------30.27-- 52.7----
2024-05-19 04:12 pm-------30.27-- 52.7----
2024-05-19 04:06 pm-------30.27-- 52.7----
2024-05-19 04:00 pm---------- 52.7----
2024-05-19 03:54 pm---------- 52.7----
2024-05-19 03:48 pm-------30.27-- 52.7----
2024-05-19 03:42 pm-------30.27-- 52.7----
2024-05-19 03:36 pm-------30.27-- 52.7----
2024-05-19 03:30 pm-------30.27-- 52.7----
2024-05-19 03:24 pm-------30.27-- 52.7----
2024-05-19 03:18 pm-------30.27-- 52.7----
2024-05-19 03:12 pm-------30.27-- 52.7----
2024-05-19 03:06 pm-------30.27-- 52.7----
2024-05-19 03:00 pm-------30.27+0.00- 52.7----
2024-05-19 02:54 pm-------30.27-- 52.7----
2024-05-19 02:48 pm-------30.27-- 52.7----
2024-05-19 02:42 pm-------30.27-- 52.7----
2024-05-19 02:36 pm-------30.27-- 52.7----
2024-05-19 02:30 pm-------30.27-- 52.7----
2024-05-19 02:24 pm-------30.27-- 52.7----
2024-05-19 02:18 pm-------30.27-- 52.7----
2024-05-19 02:12 pm-------30.27-- 52.7----
2024-05-19 02:06 pm-------30.27-- 52.7----
2024-05-19 02:00 pm-------30.27+0.02- 52.5----
2024-05-19 01:54 pm-------30.27-- 52.5----
2024-05-19 01:48 pm-------30.27-- 52.5----
2024-05-19 01:42 pm-------30.27-- 52.3----
2024-05-19 01:36 pm-------30.27-- 52.2----
2024-05-19 01:30 pm-------30.28-- 52.2----
2024-05-19 01:24 pm-------30.27-- 52.2----
2024-05-19 01:18 pm-------30.27-- 52.0----
2024-05-19 01:12 pm-------30.27-- 52.0----
2024-05-19 01:06 pm-------30.27-- 52.0----
2024-05-19 01:00 pm-------30.27+0.03- 52.0----
2024-05-19 12:54 pm-------30.27-- 52.0----
2024-05-19 12:48 pm-------30.27-- 52.0----
2024-05-19 12:42 pm-------30.28-- 51.8----
2024-05-19 12:36 pm-------30.27-- 51.8----
2024-05-19 12:30 pm-------30.27-- 51.8----
2024-05-19 12:24 pm-------30.27-- 51.8----
2024-05-19 12:18 pm-------30.27-- 51.8----
2024-05-19 12:12 pm-------30.27-- 51.8----
2024-05-19 12:06 pm-------30.27-- 51.6----
2024-05-19 12:00 pm-------30.27+0.04- 51.6----
2024-05-19 11:54 am-------30.27-- 51.6----
2024-05-19 11:48 am-------30.26-- 51.6----
2024-05-19 11:42 am-------30.26-- 51.6----
2024-05-19 11:36 am-------30.26-- 51.6----
2024-05-19 11:30 am-------30.26-- 51.4----
2024-05-19 11:24 am-------30.25-- 51.4----
2024-05-19 11:18 am-------30.25-- 51.4----
2024-05-19 11:12 am-------30.25-- 51.3----
2024-05-19 11:06 am-------30.25-- 51.3----
2024-05-19 11:00 am-------30.25+0.03- 51.1----
2024-05-19 10:54 am-------30.24-- 50.9----
2024-05-19 10:48 am-------30.24-- 50.9----
2024-05-19 10:42 am-------30.25-- 50.9----
2024-05-19 10:36 am-------30.25-- 50.9----
2024-05-19 10:30 am-------30.24-- 50.9----
2024-05-19 10:24 am-------30.24-- 50.9----
2024-05-19 10:18 am-------30.24-- 50.9----
2024-05-19 10:12 am-------30.24-- 50.9----
2024-05-19 10:06 am-------30.24-- 51.1----
2024-05-19 10:00 am-------30.24+0.04- 51.1----
2024-05-19 09:54 am-------30.24-- 51.1----
2024-05-19 09:48 am-------30.23-- 51.1----
2024-05-19 09:42 am-------30.23-- 51.1----
2024-05-19 09:36 am-------30.23-- 50.9----
2024-05-19 09:30 am-------30.23-- 50.9----
2024-05-19 09:24 am-------30.23-- 50.9----
2024-05-19 09:18 am-------30.23-- 50.9----
2024-05-19 09:12 am-------30.23-- 50.9----
2024-05-19 09:06 am-------30.23-- 50.9----
2024-05-19 09:00 am-------30.22+0.04- 50.9----
2024-05-19 08:54 am-------30.22-- 50.9----
2024-05-19 08:48 am-------30.22-- 50.9----
2024-05-19 08:42 am-------30.22-- 50.9----
2024-05-19 08:36 am-------30.22-- 50.9----
2024-05-19 08:30 am-------30.22-- 50.9----
2024-05-19 08:24 am-------30.22-- 50.9----
2024-05-19 08:18 am-------30.22-- 50.9----
2024-05-19 08:12 am-------30.22-- 50.9----
2024-05-19 08:06 am-------30.22-- 50.9----
2024-05-19 08:00 am-------30.22+0.04- 50.9----
2024-05-19 07:54 am-------30.21-- 50.9----
2024-05-19 07:48 am-------30.21-- 50.9----
2024-05-19 07:42 am-------30.21-- 50.9----
2024-05-19 07:36 am-------30.21-- 50.9----
2024-05-19 07:30 am-------30.20-- 50.9----
2024-05-19 07:24 am-------30.20-- 50.9----
2024-05-19 07:18 am-------30.20-- 50.9----
2024-05-19 07:12 am-------30.20-- 50.9----
2024-05-19 07:06 am-------30.20-- 50.9----
2024-05-19 07:00 am-------30.20+0.03- 50.9----
2024-05-19 06:54 am-------30.20-- 50.9----
2024-05-19 06:48 am-------30.19-- 50.9----
2024-05-19 06:42 am-------30.19-- 50.9----
2024-05-19 06:36 am-------30.19-- 50.9----
2024-05-19 06:30 am-------30.19-- 50.9----
2024-05-19 06:24 am-------30.19-- 50.9----
2024-05-19 06:18 am-------30.19-- 50.9----
2024-05-19 06:12 am-------30.19-- 50.9----
2024-05-19 06:06 am-------30.18-- 50.9----
2024-05-19 06:00 am-------30.18+0.02- 50.9----
2024-05-19 05:54 am-------30.18-- 50.9----
2024-05-19 05:48 am-------30.18-- 50.9----
2024-05-19 05:42 am-------30.17-- 50.9----
2024-05-19 05:36 am-------30.17-- 50.9----
2024-05-19 05:30 am-------30.17-------
2024-05-19 05:24 am-------30.17-------
2024-05-19 05:18 am-------30.17-- 50.9----
2024-05-19 05:12 am-------30.17-- 50.9----
2024-05-19 05:06 am-------30.17-- 50.9----
2024-05-19 05:00 am-------30.17+0.01- 50.9----
2024-05-19 04:54 am-------30.17-- 50.9----